owner,sensor,date,latitude,longitude,vertical_datum,mass_concentration_of_oxygen_in_sea_water,qcFlag 
SCCF RECON,ioos:station:SCCF:51:1,2011-10-01T00:00:00Z,26.5545,-82.1715,1.731,7.48,1111122 
SCCF RECON,ioos:station:SCCF:51:1,2011-10-01T01:00:00Z,26.5545,-82.1715,1.712,7.34,1111122 
SCCF RECON,ioos:station:SCCF:51:1,2011-10-01T02:00:00Z,26.5545,-82.1715,1.736,7.1,1111122 
SCCF RECON,ioos:station:SCCF:51:1,2011-10-01T03:00:00Z,26.5545,-82.1715,1.793,7.07,1111122 
SCCF RECON,ioos:station:SCCF:51:1,2011-10-01T04:00:00Z,26.5545,-82.1715,1.871,6.46,1111122 
SCCF RECON,ioos:station:SCCF:51:1,2011-10-01T05:00:00Z,26.5545,-82.1715,1.956,6.21,1111122 
SCCF RECON,ioos:station:SCCF:51:1,2011-10-01T06:00:00Z,26.5545,-82.1715,2.072,5.68,1111122 
SCCF RECON,ioos:station:SCCF:51:1,2011-10-01T07:00:00Z,26.5545,-82.1715,2.131,5.77,1111122 
SCCF RECON,ioos:station:SCCF:51:1,2011-10-01T08:00:00Z,26.5545,-82.1715,2.108,5.6,1111122 
SCCF RECON,ioos:station:SCCF:51:1,2011-10-01T09:00:00Z,26.5545,-82.1715,2.023,5.66,1111122 
SCCF RECON,ioos:station:SCCF:51:1,2011-10-01T10:00:00Z,26.5545,-82.1715,1.916,5.67,1111122 
SCCF RECON,ioos:station:SCCF:51:1,2011-10-01T11:00:00Z,26.5545,-82.1715,1.787,5.7,1111122 
SCCF RECON,ioos:station:SCCF:51:1,2011-10-01T12:00:00Z,26.5545,-82.1715,1.651,5.85,1111122 
SCCF RECON,ioos:station:SCCF:51:1,2011-10-01T13:00:00Z,26.5545,-82.1715,1.538,6.04,1111122 
SCCF RECON,ioos:station:SCCF:51:1,2011-10-01T14:00:00Z,26.5545,-82.1715,1.426,6.02,1111122 
SCCF RECON,ioos:station:SCCF:51:1,2011-10-01T15:00:00Z,26.5545,-82.1715,1.354,6.11,1111122 
SCCF RECON,ioos:station:SCCF:51:1,2011-10-01T16:00:00Z,26.5545,-82.1715,1.362,6.64,1111122 
SCCF RECON,ioos:station:SCCF:51:1,2011-10-01T17:00:00Z,26.5545,-82.1715,1.455,7.06,1111122 
SCCF RECON,ioos:station:SCCF:51:1,2011-10-01T18:00:00Z,26.5545,-82.1715,1.571,7.22,1111122 
SCCF RECON,ioos:station:SCCF:51:1,2011-10-01T19:00:00Z,26.5545,-82.1715,1.679,6.85,1111122 
SCCF RECON,ioos:station:SCCF:51:1,2011-10-01T20:00:00Z,26.5545,-82.1715,1.759,7.34,1111122 
SCCF RECON,ioos:station:SCCF:51:1,2011-10-01T21:00:00Z,26.5545,-82.1715,1.811,7.56,1111122 
SCCF RECON,ioos:station:SCCF:51:1,2011-10-01T22:00:00Z,26.5545,-82.1715,1.845,6.56,1111122 
SCCF RECON,ioos:station:SCCF:51:1,2011-10-01T23:00:00Z,26.5545,-82.1715,1.851,6.49,1111122 
SCCF RECON,ioos:station:SCCF:51:1,2011-10-02T00:00:00Z,26.5545,-82.1715,1.833,6.3,1111122 
SCCF RECON,ioos:station:SCCF:51:1,2011-10-02T01:00:00Z,26.5545,-82.1715,1.81,6.56,1111122 
SCCF RECON,ioos:station:SCCF:51:1,2011-10-02T02:00:00Z,26.5545,-82.1715,1.789,6.78,1111122 
SCCF RECON,ioos:station:SCCF:51:1,2011-10-02T03:00:00Z,26.5545,-82.1715,1.785,6.58,1111122 
SCCF RECON,ioos:station:SCCF:51:1,2011-10-02T04:00:00Z,26.5545,-82.1715,1.814,6.33,1111122 
SCCF RECON,ioos:station:SCCF:51:1,2011-10-02T05:00:00Z,26.5545,-82.1715,1.861,6.51,1111122 
SCCF RECON,ioos:station:SCCF:51:1,2011-10-02T06:00:00Z,26.5545,-82.1715,1.92,6.22,1111122 
SCCF RECON,ioos:station:SCCF:51:1,2011-10-02T07:00:00Z,26.5545,-82.1715,1.979,6.1,1111122 
SCCF RECON,ioos:station:SCCF:51:1,2011-10-02T08:00:00Z,26.5545,-82.1715,2.005,5.82,1111122 
SCCF RECON,ioos:station:SCCF:51:1,2011-10-02T09:00:00Z,26.5545,-82.1715,1.996,5.91,1111122 
SCCF RECON,ioos:station:SCCF:51:1,2011-10-02T10:00:00Z,26.5545,-82.1715,1.945,5.86,1111122 
SCCF RECON,ioos:station:SCCF:51:1,2011-10-02T11:00:00Z,26.5545,-82.1715,1.849,5.88,1111122 
SCCF RECON,ioos:station:SCCF:51:1,2011-10-02T12:00:00Z,26.5545,-82.1715,1.736,5.86,1111122 
SCCF RECON,ioos:station:SCCF:51:1,2011-10-02T13:00:00Z,26.5545,-82.1715,1.625,5.92,1111122 
SCCF RECON,ioos:station:SCCF:51:1,2011-10-02T14:00:00Z,26.5545,-82.1715,1.52,6.02,1111122 
SCCF RECON,ioos:station:SCCF:51:1,2011-10-02T15:00:00Z,26.5545,-82.1715,1.43,6.28,1111122 
SCCF RECON,ioos:station:SCCF:51:1,2011-10-02T16:00:00Z,26.5545,-82.1715,1.365,6.4,1111122 
SCCF RECON,ioos:station:SCCF:51:1,2011-10-02T17:00:00Z,26.5545,-82.1715,1.379,6.58,1111122 
SCCF RECON,ioos:station:SCCF:51:1,2011-10-02T18:00:00Z,26.5545,-82.1715,1.448,7.34,1111122 
SCCF RECON,ioos:station:SCCF:51:1,2011-10-02T19:00:00Z,26.5545,-82.1715,1.547,7.83,1111122 
SCCF RECON,ioos:station:SCCF:51:1,2011-10-02T20:00:00Z,26.5545,-82.1715,1.642,6.97,1111122 
SCCF RECON,ioos:station:SCCF:51:1,2011-10-02T21:00:00Z,26.5545,-82.1715,1.706,7.27,1111122 
SCCF RECON,ioos:station:SCCF:51:1,2011-10-02T22:00:00Z,26.5545,-82.1715,1.76,7.39,1111122 
SCCF RECON,ioos:station:SCCF:51:1,2011-10-02T23:00:00Z,26.5545,-82.1715,1.802,6.85,1111122 
SCCF RECON,ioos:station:SCCF:51:1,2011-10-03T00:00:00Z,26.5545,-82.1715,1.825,6.66,1111122 
SCCF RECON,ioos:station:SCCF:51:1,2011-10-03T01:00:00Z,26.5545,-82.1715,1.825,6.52,1111122 
SCCF RECON,ioos:station:SCCF:51:1,2011-10-03T02:00:00Z,26.5545,-82.1715,1.805,6.44,1111122 
SCCF RECON,ioos:station:SCCF:51:1,2011-10-03T03:00:00Z,26.5545,-82.1715,1.806,6.47,1111122 
SCCF RECON,ioos:station:SCCF:51:1,2011-10-03T04:00:00Z,26.5545,-82.1715,1.828,6.97,1111122 
SCCF RECON,ioos:station:SCCF:51:1,2011-10-03T05:00:00Z,26.5545,-82.1715,1.857,6.98,1111122 
SCCF RECON,ioos:station:SCCF:51:1,2011-10-03T06:00:00Z,26.5545,-82.1715,1.892,6.9,1111122 
SCCF RECON,ioos:station:SCCF:51:1,2011-10-03T07:00:00Z,26.5545,-82.1715,1.936,6.96,1111122 
SCCF RECON,ioos:station:SCCF:51:1,2011-10-03T08:00:00Z,26.5545,-82.1715,1.986,6.72,1111122 
SCCF RECON,ioos:station:SCCF:51:1,2011-10-03T09:00:00Z,26.5545,-82.1715,2.011,6.56,1111122 
SCCF RECON,ioos:station:SCCF:51:1,2011-10-03T10:00:00Z,26.5545,-82.1715,1.993,6.55,1111122 
SCCF RECON,ioos:station:SCCF:51:1,2011-10-03T11:00:00Z,26.5545,-82.1715,1.936,6.49,1111122 
SCCF RECON,ioos:station:SCCF:51:1,2011-10-03T12:00:00Z,26.5545,-82.1715,1.86,6.47,1111122 
SCCF RECON,ioos:station:SCCF:51:1,2011-10-03T13:00:00Z,26.5545,-82.1715,1.766,6.48,1111122 
SCCF RECON,ioos:station:SCCF:51:1,2011-10-03T14:00:00Z,26.5545,-82.1715,1.664,6.39,1111122 
SCCF RECON,ioos:station:SCCF:51:1,2011-10-03T15:00:00Z,26.5545,-82.1715,1.558,6.5,1111122 
SCCF RECON,ioos:station:SCCF:51:1,2011-10-03T16:00:00Z,26.5545,-82.1715,1.464,6.79,1111122 
SCCF RECON,ioos:station:SCCF:51:1,2011-10-03T17:00:00Z,26.5545,-82.1715,1.391,7.02,1111122 
SCCF RECON,ioos:station:SCCF:51:1,2011-10-03T18:00:00Z,26.5545,-82.1715,1.38,7.35,1111122 
SCCF RECON,ioos:station:SCCF:51:1,2011-10-03T19:00:00Z,26.5545,-82.1715,1.44,7.4,1111122 
SCCF RECON,ioos:station:SCCF:51:1,2011-10-03T20:00:00Z,26.5545,-82.1715,1.53,8.18,1111122 
SCCF RECON,ioos:station:SCCF:51:1,2011-10-03T21:00:00Z,26.5545,-82.1715,1.611,7.71,1111122 
SCCF RECON,ioos:station:SCCF:51:1,2011-10-03T22:00:00Z,26.5545,-82.1715,1.687,7.86,1111122 
SCCF RECON,ioos:station:SCCF:51:1,2011-10-03T23:00:00Z,26.5545,-82.1715,1.73,8.08,1111122 
SCCF RECON,ioos:station:SCCF:51:1,2011-10-04T00:00:00Z,26.5545,-82.1715,1.776,7.85,1111122 
SCCF RECON,ioos:station:SCCF:51:1,2011-10-04T01:00:00Z,26.5545,-82.1715,1.815,6.89,1111122 
SCCF RECON,ioos:station:SCCF:51:1,2011-10-04T02:00:00Z,26.5545,-82.1715,1.843,7.28,1111122 
SCCF RECON,ioos:station:SCCF:51:1,2011-10-04T03:00:00Z,26.5545,-82.1715,1.852,7.05,1111122 
SCCF RECON,ioos:station:SCCF:51:1,2011-10-04T04:00:00Z,26.5545,-82.1715,1.878,6.93,1111122 
SCCF RECON,ioos:station:SCCF:51:1,2011-10-04T05:00:00Z,26.5545,-82.1715,1.892,6.6,1111122 
SCCF RECON,ioos:station:SCCF:51:1,2011-10-04T06:00:00Z,26.5545,-82.1715,1.869,6.91,1111122 
SCCF RECON,ioos:station:SCCF:51:1,2011-10-04T07:00:00Z,26.5545,-82.1715,1.861,6.71,1111122 
SCCF RECON,ioos:station:SCCF:51:1,2011-10-04T08:00:00Z,26.5545,-82.1715,1.909,6.64,1111122 
SCCF RECON,ioos:station:SCCF:51:1,2011-10-04T09:00:00Z,26.5545,-82.1715,1.966,6.52,1111122 
SCCF RECON,ioos:station:SCCF:51:1,2011-10-04T10:00:00Z,26.5545,-82.1715,2.013,6.24,1111122 
SCCF RECON,ioos:station:SCCF:51:1,2011-10-04T11:00:00Z,26.5545,-82.1715,2.006,6.16,1111122 
SCCF RECON,ioos:station:SCCF:51:1,2011-10-04T12:00:00Z,26.5545,-82.1715,1.97,6.29,1111122 
SCCF RECON,ioos:station:SCCF:51:1,2011-10-04T13:00:00Z,26.5545,-82.1715,1.922,6.22,1111122 
SCCF RECON,ioos:station:SCCF:51:1,2011-10-04T14:00:00Z,26.5545,-82.1715,1.837,6.45,1111122 
SCCF RECON,ioos:station:SCCF:51:1,2011-10-04T15:00:00Z,26.5545,-82.1715,1.73,6.75,1111122 
SCCF RECON,ioos:station:SCCF:51:1,2011-10-04T16:00:00Z,26.5545,-82.1715,1.619,7.11,1111122 
SCCF RECON,ioos:station:SCCF:51:1,2011-10-04T17:00:00Z,26.5545,-82.1715,1.517,7.33,1111122 
SCCF RECON,ioos:station:SCCF:51:1,2011-10-04T18:00:00Z,26.5545,-82.1715,1.435,7.63,1111122 
SCCF RECON,ioos:station:SCCF:51:1,2011-10-04T19:00:00Z,26.5545,-82.1715,1.4,8.0,1111122 
SCCF RECON,ioos:station:SCCF:51:1,2011-10-04T20:00:00Z,26.5545,-82.1715,1.44,8.23,1111122 
SCCF RECON,ioos:station:SCCF:51:1,2011-10-04T21:00:00Z,26.5545,-82.1715,1.502,8.15,1111122 
SCCF RECON,ioos:station:SCCF:51:1,2011-10-04T22:00:00Z,26.5545,-82.1715,1.607,8.11,1111122 
SCCF RECON,ioos:station:SCCF:51:1,2011-10-04T23:00:00Z,26.5545,-82.1715,1.693,7.32,1111122 
SCCF RECON,ioos:station:SCCF:51:1,2011-10-05T00:00:00Z,26.5545,-82.1715,1.779,7.57,1111122 
SCCF RECON,ioos:station:SCCF:51:1,2011-10-05T01:00:00Z,26.5545,-82.1715,1.843,7.19,1111122 
SCCF RECON,ioos:station:SCCF:51:1,2011-10-05T02:00:00Z,26.5545,-82.1715,1.899,7.05,1111122 
SCCF RECON,ioos:station:SCCF:51:1,2011-10-05T03:00:00Z,26.5545,-82.1715,1.935,6.69,1111122 
SCCF RECON,ioos:station:SCCF:51:1,2011-10-05T04:00:00Z,26.5545,-82.1715,1.919,7.22,1111122 
SCCF RECON,ioos:station:SCCF:51:1,2011-10-05T05:00:00Z,26.5545,-82.1715,1.882,7.13,1111122 
SCCF RECON,ioos:station:SCCF:51:1,2011-10-05T06:00:00Z,26.5545,-82.1715,1.856,6.97,1111122 
SCCF RECON,ioos:station:SCCF:51:1,2011-10-05T07:00:00Z,26.5545,-82.1715,1.834,6.91,1111122 
SCCF RECON,ioos:station:SCCF:51:1,2011-10-05T08:00:00Z,26.5545,-82.1715,1.859,6.77,1111122 
SCCF RECON,ioos:station:SCCF:51:1,2011-10-05T09:00:00Z,26.5545,-82.1715,1.887,6.55,1111122 
SCCF RECON,ioos:station:SCCF:51:1,2011-10-05T10:00:00Z,26.5545,-82.1715,1.95,6.52,1111122 
SCCF RECON,ioos:station:SCCF:51:1,2011-10-05T11:00:00Z,26.5545,-82.1715,2.004,6.31,1111122 
SCCF RECON,ioos:station:SCCF:51:1,2011-10-05T12:00:00Z,26.5545,-82.1715,2.034,5.96,1111122 
SCCF RECON,ioos:station:SCCF:51:1,2011-10-05T13:00:00Z,26.5545,-82.1715,2.013,6.15,1111122 
SCCF RECON,ioos:station:SCCF:51:1,2011-10-05T14:00:00Z,26.5545,-82.1715,1.954,6.32,1111122 
SCCF RECON,ioos:station:SCCF:51:1,2011-10-05T15:00:00Z,26.5545,-82.1715,1.857,6.54,1111122 
SCCF RECON,ioos:station:SCCF:51:1,2011-10-05T16:00:00Z,26.5545,-82.1715,1.758,6.83,1111122 
SCCF RECON,ioos:station:SCCF:51:1,2011-10-05T17:00:00Z,26.5545,-82.1715,1.648,7.1,1111122 
SCCF RECON,ioos:station:SCCF:51:1,2011-10-05T18:00:00Z,26.5545,-82.1715,1.546,7.39,1111122 
SCCF RECON,ioos:station:SCCF:51:1,2011-10-05T19:00:00Z,26.5545,-82.1715,1.467,7.63,1111122 
SCCF RECON,ioos:station:SCCF:51:1,2011-10-05T20:00:00Z,26.5545,-82.1715,1.434,7.8,1111122 
SCCF RECON,ioos:station:SCCF:51:1,2011-10-05T21:00:00Z,26.5545,-82.1715,1.468,7.99,1111122 
SCCF RECON,ioos:station:SCCF:51:1,2011-10-05T22:00:00Z,26.5545,-82.1715,1.54,7.99,1111122 
SCCF RECON,ioos:station:SCCF:51:1,2011-10-05T23:00:00Z,26.5545,-82.1715,1.628,7.9,1111122 
SCCF RECON,ioos:station:SCCF:51:1,2011-10-06T00:00:00Z,26.5545,-82.1715,1.714,7.25,1111122 
SCCF RECON,ioos:station:SCCF:51:1,2011-10-06T01:00:00Z,26.5545,-82.1715,1.778,7.62,1111122 
SCCF RECON,ioos:station:SCCF:51:1,2011-10-06T02:00:00Z,26.5545,-82.1715,1.823,6.44,1111122 
SCCF RECON,ioos:station:SCCF:51:1,2011-10-06T03:00:00Z,26.5545,-82.1715,1.844,7.04,1111122 
SCCF RECON,ioos:station:SCCF:51:1,2011-10-06T04:00:00Z,26.5545,-82.1715,1.841,6.92,1111122 
SCCF RECON,ioos:station:SCCF:51:1,2011-10-06T05:00:00Z,26.5545,-82.1715,1.801,7.01,1111122 
SCCF RECON,ioos:station:SCCF:51:1,2011-10-06T06:00:00Z,26.5545,-82.1715,1.748,6.72,1111122 
SCCF RECON,ioos:station:SCCF:51:1,2011-10-06T07:00:00Z,26.5545,-82.1715,1.707,6.19,1111122 
SCCF RECON,ioos:station:SCCF:51:1,2011-10-06T08:00:00Z,26.5545,-82.1715,1.708,6.55,1111122 
SCCF RECON,ioos:station:SCCF:51:1,2011-10-06T09:00:00Z,26.5545,-82.1715,1.76,6.52,1111122 
SCCF RECON,ioos:station:SCCF:51:1,2011-10-06T10:00:00Z,26.5545,-82.1715,1.837,6.62,1111122 
SCCF RECON,ioos:station:SCCF:51:1,2011-10-06T11:00:00Z,26.5545,-82.1715,1.928,6.27,1111122 
SCCF RECON,ioos:station:SCCF:51:1,2011-10-06T12:00:00Z,26.5545,-82.1715,2.009,6.35,1111122 
SCCF RECON,ioos:station:SCCF:51:1,2011-10-06T13:00:00Z,26.5545,-82.1715,2.052,6.26,1111122 
SCCF RECON,ioos:station:SCCF:51:1,2011-10-06T14:00:00Z,26.5545,-82.1715,2.05,6.09,1111122 
SCCF RECON,ioos:station:SCCF:51:1,2011-10-06T15:00:00Z,26.5545,-82.1715,2.001,6.54,1111122 
SCCF RECON,ioos:station:SCCF:51:1,2011-10-06T16:00:00Z,26.5545,-82.1715,1.922,6.79,1111122 
SCCF RECON,ioos:station:SCCF:51:1,2011-10-06T17:00:00Z,26.5545,-82.1715,1.825,6.98,1111122 
SCCF RECON,ioos:station:SCCF:51:1,2011-10-06T18:00:00Z,26.5545,-82.1715,1.719,7.1,1111122 
SCCF RECON,ioos:station:SCCF:51:1,2011-10-06T19:00:00Z,26.5545,-82.1715,1.621,7.15,1111122 
SCCF RECON,ioos:station:SCCF:51:1,2011-10-06T20:00:00Z,26.5545,-82.1715,1.546,7.33,1111122 
SCCF RECON,ioos:station:SCCF:51:1,2011-10-06T21:00:00Z,26.5545,-82.1715,1.528,7.6,1111122 
SCCF RECON,ioos:station:SCCF:51:1,2011-10-06T22:00:00Z,26.5545,-82.1715,1.561,7.39,1111122 
SCCF RECON,ioos:station:SCCF:51:1,2011-10-06T23:00:00Z,26.5545,-82.1715,1.633,7.47,1111122 
SCCF RECON,ioos:station:SCCF:51:1,2011-10-07T00:00:00Z,26.5545,-82.1715,1.739,7.55,1111122 
SCCF RECON,ioos:station:SCCF:51:1,2011-10-07T01:00:00Z,26.5545,-82.1715,1.825,6.58,1111122 
SCCF RECON,ioos:station:SCCF:51:1,2011-10-07T02:00:00Z,26.5545,-82.1715,1.865,6.96,1111122 
SCCF RECON,ioos:station:SCCF:51:1,2011-10-07T03:00:00Z,26.5545,-82.1715,1.889,6.83,1111122 
SCCF RECON,ioos:station:SCCF:51:1,2011-10-07T04:00:00Z,26.5545,-82.1715,1.897,6.67,1111122 
SCCF RECON,ioos:station:SCCF:51:1,2011-10-07T05:00:00Z,26.5545,-82.1715,1.848,6.71,1111122 
SCCF RECON,ioos:station:SCCF:51:1,2011-10-07T06:00:00Z,26.5545,-82.1715,1.788,6.58,1111122 
SCCF RECON,ioos:station:SCCF:51:1,2011-10-07T07:00:00Z,26.5545,-82.1715,1.714,6.34,1111122 
SCCF RECON,ioos:station:SCCF:51:1,2011-10-07T08:00:00Z,26.5545,-82.1715,1.659,6.35,1111122 
SCCF RECON,ioos:station:SCCF:51:1,2011-10-07T09:00:00Z,26.5545,-82.1715,1.668,6.37,1111122 
SCCF RECON,ioos:station:SCCF:51:1,2011-10-07T10:00:00Z,26.5545,-82.1715,1.731,6.65,1111122 
SCCF RECON,ioos:station:SCCF:51:1,2011-10-07T11:00:00Z,26.5545,-82.1715,1.817,6.4,1111122 
SCCF RECON,ioos:station:SCCF:51:1,2011-10-07T12:00:00Z,26.5545,-82.1715,1.905,6.01,1111122 
SCCF RECON,ioos:station:SCCF:51:1,2011-10-07T13:00:00Z,26.5545,-82.1715,1.99,6.31,1111122 
SCCF RECON,ioos:station:SCCF:51:1,2011-10-07T14:00:00Z,26.5545,-82.1715,2.042,6.35,1111122 
SCCF RECON,ioos:station:SCCF:51:1,2011-10-07T15:00:00Z,26.5545,-82.1715,2.044,4.19,1111122 
SCCF RECON,ioos:station:SCCF:51:1,2011-10-07T16:00:00Z,26.5545,-82.1715,1.979,6.79,1111122 
SCCF RECON,ioos:station:SCCF:51:1,2011-10-07T17:00:00Z,26.5545,-82.1715,1.907,6.87,1111122 
SCCF RECON,ioos:station:SCCF:51:1,2011-10-07T18:00:00Z,26.5545,-82.1715,1.817,7.1,1111122 
SCCF RECON,ioos:station:SCCF:51:1,2011-10-07T19:00:00Z,26.5545,-82.1715,1.719,6.97,1111122 
SCCF RECON,ioos:station:SCCF:51:1,2011-10-07T20:00:00Z,26.5545,-82.1715,1.639,7.35,1111122 
SCCF RECON,ioos:station:SCCF:51:1,2011-10-07T21:00:00Z,26.5545,-82.1715,1.601,7.18,1111122 
SCCF RECON,ioos:station:SCCF:51:1,2011-10-07T22:00:00Z,26.5545,-82.1715,1.604,6.76,1111122 
SCCF RECON,ioos:station:SCCF:51:1,2011-10-07T23:00:00Z,26.5545,-82.1715,1.668,6.89,1111122 
SCCF RECON,ioos:station:SCCF:51:1,2011-10-08T00:00:00Z,26.5545,-82.1715,1.75,6.74,1111122 
SCCF RECON,ioos:station:SCCF:51:1,2011-10-08T01:00:00Z,26.5545,-82.1715,1.794,6.71,1111122 
SCCF RECON,ioos:station:SCCF:51:1,2011-10-08T02:00:00Z,26.5545,-82.1715,1.874,7.04,1111122 
SCCF RECON,ioos:station:SCCF:51:1,2011-10-08T03:00:00Z,26.5545,-82.1715,1.902,6.62,1111122 
SCCF RECON,ioos:station:SCCF:51:1,2011-10-08T04:00:00Z,26.5545,-82.1715,1.914,6.49,1111122 
SCCF RECON,ioos:station:SCCF:51:1,2011-10-08T05:00:00Z,26.5545,-82.1715,1.866,6.61,1111122 
SCCF RECON,ioos:station:SCCF:51:1,2011-10-08T06:00:00Z,26.5545,-82.1715,1.803,6.34,1111122 
SCCF RECON,ioos:station:SCCF:51:1,2011-10-08T07:00:00Z,26.5545,-82.1715,1.724,6.47,1111122 
SCCF RECON,ioos:station:SCCF:51:1,2011-10-08T08:00:00Z,26.5545,-82.1715,1.646,6.54,1111122 
SCCF RECON,ioos:station:SCCF:51:1,2011-10-08T09:00:00Z,26.5545,-82.1715,1.612,6.23,1111122 
SCCF RECON,ioos:station:SCCF:51:1,2011-10-08T10:00:00Z,26.5545,-82.1715,1.647,6.56,1111122 
SCCF RECON,ioos:station:SCCF:51:1,2011-10-08T11:00:00Z,26.5545,-82.1715,1.709,6.26,1111122 
SCCF RECON,ioos:station:SCCF:51:1,2011-10-08T12:00:00Z,26.5545,-82.1715,1.791,6.01,1111122 
SCCF RECON,ioos:station:SCCF:51:1,2011-10-08T13:00:00Z,26.5545,-82.1715,1.877,5.71,1111122 
SCCF RECON,ioos:station:SCCF:51:1,2011-10-08T14:00:00Z,26.5545,-82.1715,1.935,5.91,1111122 
SCCF RECON,ioos:station:SCCF:51:1,2011-10-08T15:00:00Z,26.5545,-82.1715,1.989,5.87,1111122 
SCCF RECON,ioos:station:SCCF:51:1,2011-10-08T16:00:00Z,26.5545,-82.1715,1.996,6.14,1111122 
SCCF RECON,ioos:station:SCCF:51:1,2011-10-08T17:00:00Z,26.5545,-82.1715,1.956,6.65,1111122 
SCCF RECON,ioos:station:SCCF:51:1,2011-10-08T18:00:00Z,26.5545,-82.1715,1.882,6.69,1111122 
SCCF RECON,ioos:station:SCCF:51:1,2011-10-08T19:00:00Z,26.5545,-82.1715,1.793,6.82,1111122 
SCCF RECON,ioos:station:SCCF:51:1,2011-10-08T20:00:00Z,26.5545,-82.1715,1.703,6.0,1111122 
SCCF RECON,ioos:station:SCCF:51:1,2011-10-08T21:00:00Z,26.5545,-82.1715,1.613,7.01,1111122 
SCCF RECON,ioos:station:SCCF:51:1,2011-10-08T22:00:00Z,26.5545,-82.1715,1.549,6.87,1111122 
SCCF RECON,ioos:station:SCCF:51:1,2011-10-08T23:00:00Z,26.5545,-82.1715,1.547,6.83,1111122 
SCCF RECON,ioos:station:SCCF:51:1,2011-10-09T00:00:00Z,26.5545,-82.1715,1.624,6.54,1111122 
SCCF RECON,ioos:station:SCCF:51:1,2011-10-09T01:00:00Z,26.5545,-82.1715,1.734,6.42,1111122 
SCCF RECON,ioos:station:SCCF:51:1,2011-10-09T02:00:00Z,26.5545,-82.1715,1.818,6.01,1111122 
SCCF RECON,ioos:station:SCCF:51:1,2011-10-09T03:00:00Z,26.5545,-82.1715,1.878,6.35,1111122 
SCCF RECON,ioos:station:SCCF:51:1,2011-10-09T04:00:00Z,26.5545,-82.1715,1.889,6.39,1111122 
SCCF RECON,ioos:station:SCCF:51:1,2011-10-09T05:00:00Z,26.5545,-82.1715,1.876,6.3,1111122 
SCCF RECON,ioos:station:SCCF:51:1,2011-10-09T06:00:00Z,26.5545,-82.1715,1.823,5.14,1111122 
SCCF RECON,ioos:station:SCCF:51:1,2011-10-09T07:00:00Z,26.5545,-82.1715,1.758,3.86,1111122 
SCCF RECON,ioos:station:SCCF:51:1,2011-10-09T08:00:00Z,26.5545,-82.1715,1.688,6.09,1111122 
SCCF RECON,ioos:station:SCCF:51:1,2011-10-09T09:00:00Z,26.5545,-82.1715,1.619,6.19,1111122 
SCCF RECON,ioos:station:SCCF:51:1,2011-10-09T10:00:00Z,26.5545,-82.1715,1.561,6.32,1111122 
SCCF RECON,ioos:station:SCCF:51:1,2011-10-09T11:00:00Z,26.5545,-82.1715,1.558,5.55,1111122 
SCCF RECON,ioos:station:SCCF:51:1,2011-10-09T12:00:00Z,26.5545,-82.1715,1.635,5.6,1111122 
SCCF RECON,ioos:station:SCCF:51:1,2011-10-09T13:00:00Z,26.5545,-82.1715,1.758,5.8,1111122 
SCCF RECON,ioos:station:SCCF:51:1,2011-10-09T14:00:00Z,26.5545,-82.1715,1.909,4.98,1111122 
SCCF RECON,ioos:station:SCCF:51:1,2011-10-09T15:00:00Z,26.5545,-82.1715,2.009,6.11,1111122 
SCCF RECON,ioos:station:SCCF:51:1,2011-10-09T16:00:00Z,26.5545,-82.1715,2.049,6.31,1111122 
SCCF RECON,ioos:station:SCCF:51:1,2011-10-09T17:00:00Z,26.5545,-82.1715,2.03,5.52,1111122 
SCCF RECON,ioos:station:SCCF:51:1,2011-10-09T18:00:00Z,26.5545,-82.1715,1.957,5.96,1111122 
SCCF RECON,ioos:station:SCCF:51:1,2011-10-09T19:00:00Z,26.5545,-82.1715,1.866,7.28,1111122 
SCCF RECON,ioos:station:SCCF:51:1,2011-10-09T20:00:00Z,26.5545,-82.1715,1.807,6.11,1111122 
SCCF RECON,ioos:station:SCCF:51:1,2011-10-09T21:00:00Z,26.5545,-82.1715,1.745,7.52,1111122 
SCCF RECON,ioos:station:SCCF:51:1,2011-10-09T22:00:00Z,26.5545,-82.1715,1.705,7.3,1111122 
SCCF RECON,ioos:station:SCCF:51:1,2011-10-09T23:00:00Z,26.5545,-82.1715,1.681,7.75,1111122 
SCCF RECON,ioos:station:SCCF:51:1,2011-10-10T00:00:00Z,26.5545,-82.1715,1.712,6.39,1111122 
SCCF RECON,ioos:station:SCCF:51:1,2011-10-10T01:00:00Z,26.5545,-82.1715,1.793,7.03,1111122 
SCCF RECON,ioos:station:SCCF:51:1,2011-10-10T02:00:00Z,26.5545,-82.1715,1.895,7.08,1111122 
SCCF RECON,ioos:station:SCCF:51:1,2011-10-10T03:00:00Z,26.5545,-82.1715,1.976,6.83,1111122 
SCCF RECON,ioos:station:SCCF:51:1,2011-10-10T04:00:00Z,26.5545,-82.1715,2.01,6.49,1111122 
SCCF RECON,ioos:station:SCCF:51:1,2011-10-10T05:00:00Z,26.5545,-82.1715,2.046,5.97,1111122 
SCCF RECON,ioos:station:SCCF:51:1,2011-10-10T06:00:00Z,26.5545,-82.1715,2.007,6.33,1111122 
SCCF RECON,ioos:station:SCCF:51:1,2011-10-10T07:00:00Z,26.5545,-82.1715,1.923,6.06,1111122 
SCCF RECON,ioos:station:SCCF:51:1,2011-10-10T08:00:00Z,26.5545,-82.1715,1.81,6.45,1111122 
SCCF RECON,ioos:station:SCCF:51:1,2011-10-10T09:00:00Z,26.5545,-82.1715,1.71,6.29,1111122 
SCCF RECON,ioos:station:SCCF:51:1,2011-10-10T10:00:00Z,26.5545,-82.1715,1.63,6.09,1111122 
SCCF RECON,ioos:station:SCCF:51:1,2011-10-10T11:00:00Z,26.5545,-82.1715,1.593,5.91,1111122 
SCCF RECON,ioos:station:SCCF:51:1,2011-10-10T12:00:00Z,26.5545,-82.1715,1.649,5.93,1111122 
SCCF RECON,ioos:station:SCCF:51:1,2011-10-10T13:00:00Z,26.5545,-82.1715,1.736,5.87,1111122 
SCCF RECON,ioos:station:SCCF:51:1,2011-10-10T14:00:00Z,26.5545,-82.1715,1.874,5.73,1111122 
SCCF RECON,ioos:station:SCCF:51:1,2011-10-10T15:00:00Z,26.5545,-82.1715,2.0,5.9,1111122 
SCCF RECON,ioos:station:SCCF:51:1,2011-10-10T16:00:00Z,26.5545,-82.1715,2.059,5.81,1111122 
SCCF RECON,ioos:station:SCCF:51:1,2011-10-10T17:00:00Z,26.5545,-82.1715,2.08,6.63,1111122 
SCCF RECON,ioos:station:SCCF:51:1,2011-10-10T18:00:00Z,26.5545,-82.1715,2.06,6.75,1111122 
SCCF RECON,ioos:station:SCCF:51:1,2011-10-10T19:00:00Z,26.5545,-82.1715,2.002,6.6,1111122 
SCCF RECON,ioos:station:SCCF:51:1,2011-10-10T20:00:00Z,26.5545,-82.1715,1.93,6.69,1111122 
SCCF RECON,ioos:station:SCCF:51:1,2011-10-10T21:00:00Z,26.5545,-82.1715,1.84,7.23,1111122 
SCCF RECON,ioos:station:SCCF:51:1,2011-10-10T22:00:00Z,26.5545,-82.1715,1.769,6.63,1111122 
SCCF RECON,ioos:station:SCCF:51:1,2011-10-10T23:00:00Z,26.5545,-82.1715,1.73,6.34,1111122 
SCCF RECON,ioos:station:SCCF:51:1,2011-10-11T00:00:00Z,26.5545,-82.1715,1.76,6.7,1111122 
SCCF RECON,ioos:station:SCCF:51:1,2011-10-11T01:00:00Z,26.5545,-82.1715,1.84,6.46,1111122 
SCCF RECON,ioos:station:SCCF:51:1,2011-10-11T02:00:00Z,26.5545,-82.1715,1.96,6.71,1111122 
SCCF RECON,ioos:station:SCCF:51:1,2011-10-11T03:00:00Z,26.5545,-82.1715,2.071,6.98,1111122 
SCCF RECON,ioos:station:SCCF:51:1,2011-10-11T04:00:00Z,26.5545,-82.1715,2.128,6.01,1111122 
SCCF RECON,ioos:station:SCCF:51:1,2011-10-11T05:00:00Z,26.5545,-82.1715,2.113,6.13,1111122 
SCCF RECON,ioos:station:SCCF:51:1,2011-10-11T06:00:00Z,26.5545,-82.1715,2.06,6.23,1111122 
SCCF RECON,ioos:station:SCCF:51:1,2011-10-11T07:00:00Z,26.5545,-82.1715,1.98,6.77,1111122 
SCCF RECON,ioos:station:SCCF:51:1,2011-10-11T08:00:00Z,26.5545,-82.1715,1.88,6.09,1111122 
SCCF RECON,ioos:station:SCCF:51:1,2011-10-11T09:00:00Z,26.5545,-82.1715,1.79,6.32,1111122 
SCCF RECON,ioos:station:SCCF:51:1,2011-10-11T10:00:00Z,26.5545,-82.1715,1.69,6.21,1111122 
SCCF RECON,ioos:station:SCCF:51:1,2011-10-11T11:00:00Z,26.5545,-82.1715,1.62,5.65,1111122 
SCCF RECON,ioos:station:SCCF:51:1,2011-10-11T12:00:00Z,26.5545,-82.1715,1.619,6.24,1111122 
SCCF RECON,ioos:station:SCCF:51:1,2011-10-11T13:00:00Z,26.5545,-82.1715,1.685,6.34,1111122 
SCCF RECON,ioos:station:SCCF:51:1,2011-10-11T14:00:00Z,26.5545,-82.1715,1.797,5.66,1111122 
SCCF RECON,ioos:station:SCCF:51:1,2011-10-11T15:00:00Z,26.5545,-82.1715,1.95,5.95,1111122 
SCCF RECON,ioos:station:SCCF:51:1,2011-10-11T16:00:00Z,26.5545,-82.1715,2.07,5.87,1111122 
SCCF RECON,ioos:station:SCCF:51:1,2011-10-11T17:00:00Z,26.5545,-82.1715,2.124,6.25,1111122 
SCCF RECON,ioos:station:SCCF:51:1,2011-10-11T18:00:00Z,26.5545,-82.1715,2.114,6.57,1111122 
SCCF RECON,ioos:station:SCCF:51:1,2011-10-11T19:00:00Z,26.5545,-82.1715,2.059,6.58,1111122 